Location: Asheville, NC
(35.6000°N, 82.5500°W)
Time: 01:28:09
(UTC-05:00)

Vanguard 2 Rocket - Pass Details

Date: 14 February 2018
Orbit: 555 x 3327 km, 32.9° (Epoch: 23 February)

Event Time Altitude Azimuth Distance (km) Brightness Sun altitude
Rises 22:07:55 0° 202° (SSW) 4,949 10.7 -48.0°
Enters shadow 22:08:40 - 200° (SSW) 4,800 10.6 -48.2°
Reaches altitude 10° 22:11:18 10° 192° (SSW) 4,329 - -48.7°
Maximum altitude 22:21:56 31° 135° (SE) 3,838 - -50.6°
Drops below altitude 10° 22:36:51 10° 83° (E) 6,144 - -53.3°
Sets 22:42:48 0° 75° (ENE) 7,300 - -54.3°
